Location: *
(34.0486°S, 61.7880°E)
Time: 19:48:06
(UTC+00:00)

Meteor 1-24 Rocket - Pass Details

Date: 01 April 2020
Orbit: 790 x 927 km, 81.3° (Epoch: 28 May)

Event Time Altitude Azimuth Distance (km) Brightness Sun altitude
Rises 15:55:03 0° 350° (N) 3,275 6.7 -27.1°
Reaches altitude 10° 15:57:23 10° 349° (N) 2,358 6.0 -27.6°
Enters shadow 15:58:45 19° 347° (NNW) 1,837 5.4 -27.9°
Exits shadow 16:02:49 79° 244° (WSW) 830 3.6 -28.7°
Drops below altitude 10° 16:08:13 10° 175° (S) 2,442 6.2 -29.8°
Sets 16:10:40 0° 173° (S) 3,400 7.0 -30.3°
